Погода в Новогусельском

Россия / Саратовская область     51°36′06″N   46°09′34″E
темп.,
°C
ветер,
м/с
пор.,
м/с
влажн.,
%
обл.,
%
осадки,
мм/ч
давл.,
гПа
погр.,
м
1 августа, вс
вс101:00+21сз3379100 0.3 101125
04:00+20зюз228039 0.3 101214
07:00+22сз12725 0.0 101257
10:00+27ссв11555 0.0 1013455
13:00+29зюз32464 0.0 10121189
16:00+30зюз33420 0.0 10121191
19:00+30зсз22421 0.0 1011281
22:00+27сз334970 0.0 101241
2 августа, пн
пн201:00+24всв225528 0.0 101215
04:00+22всв22622 0.0 101315
07:00+23св23586 0.0 101378
10:00+29вюв34430 0.0 1013493
13:00+34ююв34260 0.0 10122401
16:00+34з45225 0.0 10101719
19:00+32юз1126100 0.0 101024
22:00+25ююз22485 0.0 101017
3 августа, вт
вт301:00+24ю22505 0.0 101018
04:00+23ююз225134 0.0 101017
07:00+24ююз34505 0.0 1011102
10:00+29ююз463664 0.0 1010438
13:00+33юз47305 0.0 10091767
16:00+32юз3628100 0.1 1008163
19:00+30зсз12163631 0.0 1007400
22:00+24ссз125059 0.0 100924
4 августа, ср
ср401:00+21св6973100 0.0 1009178
04:00+21св5771100 0.0 1009203
07:00+20ююв1180100 0.4 101240
10:00+23сз3368100 0.6 1012445
13:00+25зюз3361100 0.0 1012680
16:00+28сз554670 0.1 10121492
19:00+27ссз564454 0.0 1012608
22:00+23ссз47540 0.0 1014117
5 августа, чт
чт501:00+21с3459100 0.0 101464
04:00+19ссз34640 0.0 101562
07:00+20ссз345985 0.0 1016104
10:00+25ссз444084 0.0 10161310
13:00+26зсз453649 0.0 10162042
16:00+27с663445 0.0 10151392
19:00+27с56326 0.0 10151648
22:00+21с46493 0.0 101672